Weather History for Rock Hill, SC

Change the Weather History Date:

Wednesday, October 3, 2012

  Actual Average Record
Temperature  
Mean Temperature 72 °F -  
Max Temperature 79 °F 76 °F 93 °F (1954)
Min Temperature 66 °F 52 °F 34 °F (1974)
Cooling Degree Days 8    
Growing Degree Days 22 (Base 50)    
Moisture  
Dew Point 66 °F    
Average Humidity 85    
Maximum Humidity 100    
Minimum Humidity 62    
Precipitation  
Precipitation 0.01 in - - ()
Sea Level Pressure  
Sea Level Pressure 30.08 in    
Wind  
Wind Speed 2 mph (SW)    
Max Wind Speed 10 mph    
Max Gust Speed -    
Visibility 9 miles    
Events Rain    
Averages and records for this station are not official NWS values.
T = Trace of Precipitation, MM = Missing Value Source: NWS Daily Summary

Daily Weather History Graph

Daily Weather History Graph

Search for Another Location

Airport:

Trip Planner

Search our weather history database for the weather conditions in past years. The results will help you decide how hot, cold, wet, or windy it might be!

Date:

Astronomy

Oct. 03, 2012 Rise Set
Actual Time 7:20 AM EDT 7:04 PM EDT
Civil Twilight 6:55 AM EDT 7:29 PM EDT
Nautical Twilight 6:26 AM EDT 7:59 PM EDT
Astronomical Twilight 5:56 AM EDT 8:28 PM EDT
Moon 9:05 PM EDT (10/3) 10:33 AM EDT (10/3)
Length of Visible Light 12h 34m
Length of Day
11h 43m
Waning Gibbous, 89% of the Moon is Illuminated
Oct 3
Waning Gibbous
Oct 8
Last Quarter
Oct 15
New
Oct 21
First Quarter
Oct 29
Full

Hourly Weather History & Observations

Time (EDT) Temp. Dew Point Humidity Pressure Visibility Wind Dir Wind Speed Gust Speed Precip Events Conditions
12:54 AM 68.0 °F 66.9 °F 96% 29.97 in 10.0 mi WSW 3.5 mph - N/A   Scattered Clouds
1:54 AM 69.1 °F 68.0 °F 96% 29.98 in 10.0 mi Calm Calm - N/A   Mostly Cloudy
2:54 AM 66.9 °F 66.9 °F 100% 29.99 in 7.0 mi Calm Calm - N/A   Mostly Cloudy
3:54 AM 68.0 °F 66.9 °F 96% 29.99 in 7.0 mi Calm Calm - N/A   Scattered Clouds
4:54 AM 66.9 °F 66.9 °F 100% 30.00 in 7.0 mi Calm Calm - N/A   Scattered Clouds
5:54 AM 66.9 °F 66.9 °F 100% 30.02 in 8.0 mi Calm Calm - N/A   Mostly Cloudy
6:54 AM 66.9 °F 66.0 °F 97% 30.04 in 7.0 mi Calm Calm - N/A   Clear
7:54 AM 66.9 °F 66.9 °F 100% 30.06 in 6.0 mi Calm Calm - N/A   Mostly Cloudy
8:54 AM 69.1 °F 68.0 °F 96% 30.09 in 8.0 mi Calm Calm - N/A   Mostly Cloudy
9:54 AM 73.0 °F 66.0 °F 79% 30.11 in 10.0 mi Calm Calm - N/A   Mostly Cloudy
10:54 AM 75.0 °F 64.9 °F 71% 30.11 in 10.0 mi SW 4.6 mph - N/A   Clear
11:54 AM 77.0 °F 63.0 °F 62% 30.11 in 10.0 mi SW 3.5 mph - N/A   Clear
12:54 PM 79.0 °F 64.9 °F 62% 30.12 in 10.0 mi WSW 10.4 mph - N/A   Clear
1:54 PM 78.1 °F 64.0 °F 62% 30.10 in 10.0 mi WSW 9.2 mph - N/A   Clear
2:54 PM 75.9 °F 63.0 °F 64% 30.10 in 10.0 mi WSW 6.9 mph - N/A   Clear
3:54 PM 75.0 °F 64.0 °F 69% 30.09 in 10.0 mi SSW 6.9 mph - N/A   Clear
4:54 PM 75.0 °F 64.0 °F 69% 30.11 in 10.0 mi WSW 5.8 mph - N/A   Clear
6:54 PM 71.1 °F 66.0 °F 84% 30.13 in 10.0 mi SSW 3.5 mph - N/A   Clear
7:54 PM 70.0 °F 64.9 °F 84% 30.14 in 10.0 mi SW 3.5 mph - N/A   Partly Cloudy
9:54 PM 69.1 °F 66.0 °F 90% 30.18 in 10.0 mi SW 3.5 mph - N/A   Overcast
10:54 PM 68.0 °F 66.0 °F 93% 30.20 in 9.0 mi Calm Calm - 0.00 in Rain Light Rain
11:54 PM 68.0 °F 66.9 °F 96% 30.19 in 8.0 mi Calm Calm - 0.01 in Rain Light Rain